BRISAT (41591 NORAD) Tracking and Keplerian Element Data

This shows tracking and keplerian element data for the satellite.

Feedback or suggestion? Click here.




ElementValue
Catalog41591
NameBRISAT
Epoch Orbit3046
Epoch Day286.79289356
Epoch Year2024
RAAN252.4704
Inclination0.0131
Eccentricity0.0002117
Argument of Perigee299.8168
Mean Anonmoly265.5321
Mean Motion1.00270954
Decay Rate-1.97E-06
L11 41591U 16039A 24286.79289356 -.00000197 00000+0 00000+0 0 9996
L22 41591 0.0131 252.4704 0002117 299.8168 265.5321 1.00270954 30460



Live tracking and technical data element details for BRISAT (NORAD 41591). BRISAT can be tracked NOW for your location showing map with azimuth and elevation plus other details from your city location.







IsCatalogInMostPopularTable: catalog: 41591, numindb: 595
Update: records affected: 1



GetName: 41591 BRISAT

Hit Count: updated at: Tue, 03 Dec 2024 03:15:44 GMT